Year,Month,Day,Hour,Minute,Value (Times are PST for temperature in C)
2019,03,20,00,00,6.00
2019,03,20,00,01,6.00
2019,03,20,00,02,5.90
2019,03,20,00,03,5.90
2019,03,20,00,04,5.90
2019,03,20,00,05,5.90
2019,03,20,00,06,5.90
2019,03,20,00,07,5.80
2019,03,20,00,08,5.80
2019,03,20,00,09,5.80
2019,03,20,00,10,5.80
2019,03,20,00,11,5.80
2019,03,20,00,12,5.80
2019,03,20,00,13,5.80
2019,03,20,00,14,5.80
2019,03,20,00,15,5.70
2019,03,20,00,16,5.70
2019,03,20,00,17,5.70
2019,03,20,00,18,5.70
2019,03,20,00,19,5.70
2019,03,20,00,20,5.70
2019,03,20,00,21,5.70
2019,03,20,00,22,5.70
2019,03,20,00,23,5.60
2019,03,20,00,24,5.60
2019,03,20,00,25,5.60
2019,03,20,00,26,5.60
2019,03,20,00,27,5.60
2019,03,20,00,28,5.60
2019,03,20,00,29,5.60
2019,03,20,00,30,5.60
2019,03,20,00,31,5.70
2019,03,20,00,32,5.60
2019,03,20,00,33,5.60
2019,03,20,00,34,5.70
2019,03,20,00,35,5.60
2019,03,20,00,36,5.60
2019,03,20,00,37,5.60
2019,03,20,00,38,5.60
2019,03,20,00,39,5.60
2019,03,20,00,40,5.60
2019,03,20,00,41,5.60
2019,03,20,00,42,5.60
2019,03,20,00,43,5.50
2019,03,20,00,44,5.50
2019,03,20,00,45,5.50
2019,03,20,00,46,5.40
2019,03,20,00,47,5.40
2019,03,20,00,48,5.40
2019,03,20,00,49,5.40
2019,03,20,00,50,5.40
2019,03,20,00,51,5.40
2019,03,20,00,52,5.30
2019,03,20,00,53,5.30
2019,03,20,00,54,5.30
2019,03,20,00,55,5.30
2019,03,20,00,56,5.30
2019,03,20,00,57,5.30
2019,03,20,00,58,5.30
2019,03,20,00,59,5.30
2019,03,20,01,00,5.30
2019,03,20,01,01,5.30
2019,03,20,01,02,5.30
2019,03,20,01,03,5.30
2019,03,20,01,04,5.30
2019,03,20,01,05,5.30
2019,03,20,01,06,5.30
2019,03,20,01,07,5.30
2019,03,20,01,08,5.30
2019,03,20,01,09,5.30
2019,03,20,01,10,5.30
2019,03,20,01,11,5.30
2019,03,20,01,12,5.30
2019,03,20,01,13,5.30
2019,03,20,01,14,5.30
2019,03,20,01,15,5.20
2019,03,20,01,16,5.20
2019,03,20,01,17,5.20
2019,03,20,01,18,5.10
2019,03,20,01,19,5.10
2019,03,20,01,20,5.10
2019,03,20,01,21,5.10
2019,03,20,01,22,5.10
2019,03,20,01,23,5.10
2019,03,20,01,24,5.10
2019,03,20,01,25,5.10
2019,03,20,01,26,5.10
2019,03,20,01,27,5.10
2019,03,20,01,28,5.00
2019,03,20,01,29,5.00
2019,03,20,01,30,5.00
2019,03,20,01,31,5.00
2019,03,20,01,32,5.00
2019,03,20,01,33,5.00
2019,03,20,01,34,5.10
2019,03,20,01,35,5.10
2019,03,20,01,36,5.10
2019,03,20,01,37,5.00
2019,03,20,01,38,5.00
2019,03,20,01,39,5.00
2019,03,20,01,40,5.00
2019,03,20,01,41,4.90
2019,03,20,01,42,4.90
2019,03,20,01,43,4.90
2019,03,20,01,44,4.90
2019,03,20,01,45,4.90
2019,03,20,01,46,4.90
2019,03,20,01,47,4.90
2019,03,20,01,48,4.90
2019,03,20,01,49,4.90
2019,03,20,01,50,4.90
2019,03,20,01,51,5.00
2019,03,20,01,52,5.00
2019,03,20,01,53,5.00
2019,03,20,01,54,4.90
2019,03,20,01,55,4.90
2019,03,20,01,56,4.90
2019,03,20,01,57,4.90
2019,03,20,01,58,4.90
2019,03,20,01,59,4.90
2019,03,20,02,00,4.90
2019,03,20,02,01,4.90
2019,03,20,02,02,4.80
2019,03,20,02,03,4.80
2019,03,20,02,04,4.80
2019,03,20,02,05,4.80
2019,03,20,02,06,4.80
2019,03,20,02,07,4.80
2019,03,20,02,08,4.80
2019,03,20,02,09,4.80
2019,03,20,02,10,4.80
2019,03,20,02,11,4.90
2019,03,20,02,12,4.90
2019,03,20,02,13,4.80
2019,03,20,02,14,4.80
2019,03,20,02,15,4.80
2019,03,20,02,16,4.80
2019,03,20,02,17,4.80
2019,03,20,02,18,4.80
2019,03,20,02,19,4.80
2019,03,20,02,20,4.80
2019,03,20,02,21,4.70
2019,03,20,02,22,4.70
2019,03,20,02,23,4.70
2019,03,20,02,24,4.70
2019,03,20,02,25,4.70
2019,03,20,02,26,4.70
2019,03,20,02,27,4.70
2019,03,20,02,28,4.70
2019,03,20,02,29,4.70
2019,03,20,02,30,4.70
2019,03,20,02,31,4.70
2019,03,20,02,32,4.70
2019,03,20,02,33,4.70
2019,03,20,02,34,4.70
2019,03,20,02,35,4.70
2019,03,20,02,36,4.60
2019,03,20,02,37,4.60
2019,03,20,02,38,4.60
2019,03,20,02,39,4.60
2019,03,20,02,40,4.60
2019,03,20,02,41,4.60
2019,03,20,02,42,4.60
2019,03,20,02,43,4.60
2019,03,20,02,44,4.50
2019,03,20,02,45,4.60
2019,03,20,02,46,4.60
2019,03,20,02,47,4.60
2019,03,20,02,48,4.60
2019,03,20,02,49,4.60
2019,03,20,02,50,4.60
2019,03,20,02,51,4.60
2019,03,20,02,52,4.60
2019,03,20,02,53,4.60
2019,03,20,02,54,4.60
2019,03,20,02,55,4.60
2019,03,20,02,56,4.60
2019,03,20,02,57,4.50
2019,03,20,02,58,4.50
2019,03,20,02,59,4.50
2019,03,20,03,00,4.50
2019,03,20,03,01,4.50
2019,03,20,03,02,4.50
2019,03,20,03,03,4.50
2019,03,20,03,04,4.40
2019,03,20,03,05,4.40
2019,03,20,03,06,4.40
2019,03,20,03,07,4.40
2019,03,20,03,08,4.40
2019,03,20,03,09,4.40
2019,03,20,03,10,4.40
2019,03,20,03,11,4.40
2019,03,20,03,12,4.40
2019,03,20,03,13,4.40
2019,03,20,03,14,4.40
2019,03,20,03,15,4.40
2019,03,20,03,16,4.40
2019,03,20,03,17,4.30
2019,03,20,03,18,4.30
2019,03,20,03,19,4.30
2019,03,20,03,20,4.30
2019,03,20,03,21,4.30
2019,03,20,03,22,4.30
2019,03,20,03,23,4.20
2019,03,20,03,24,4.20
2019,03,20,03,25,4.20
2019,03,20,03,26,4.20
2019,03,20,03,27,4.20
2019,03,20,03,28,4.10
2019,03,20,03,29,4.10
2019,03,20,03,30,4.10
2019,03,20,03,31,4.10
2019,03,20,03,32,4.10
2019,03,20,03,33,4.00
2019,03,20,03,34,4.00
2019,03,20,03,35,4.00
2019,03,20,03,36,4.00
2019,03,20,03,37,3.90
2019,03,20,03,38,4.00
2019,03,20,03,39,4.00
2019,03,20,03,40,3.90
2019,03,20,03,41,3.90
2019,03,20,03,42,3.90
2019,03,20,03,43,3.90
2019,03,20,03,44,3.80
2019,03,20,03,45,3.80
2019,03,20,03,46,3.80
2019,03,20,03,47,3.80
2019,03,20,03,48,3.80
2019,03,20,03,49,3.80
2019,03,20,03,50,3.80
2019,03,20,03,51,3.80
2019,03,20,03,52,3.80
2019,03,20,03,53,3.80
2019,03,20,03,54,3.80
2019,03,20,03,55,3.80
2019,03,20,03,56,3.80
2019,03,20,03,57,3.80
2019,03,20,03,58,3.80
2019,03,20,03,59,3.80
2019,03,20,04,00,3.80
2019,03,20,04,01,3.80
2019,03,20,04,02,3.80
2019,03,20,04,03,3.80
2019,03,20,04,04,3.90
2019,03,20,04,05,3.90
2019,03,20,04,06,3.90
2019,03,20,04,07,3.90
2019,03,20,04,08,3.90
2019,03,20,04,09,3.90
2019,03,20,04,10,3.90
2019,03,20,04,11,3.90
2019,03,20,04,12,3.90
2019,03,20,04,13,3.90
2019,03,20,04,14,3.90
2019,03,20,04,15,3.90
2019,03,20,04,16,3.90
2019,03,20,04,17,3.90
2019,03,20,04,18,3.90
2019,03,20,04,19,3.90
2019,03,20,04,20,3.90
2019,03,20,04,21,3.90
2019,03,20,04,22,3.90
2019,03,20,04,23,3.80
2019,03,20,04,24,3.80
2019,03,20,04,25,3.80
2019,03,20,04,26,3.80
2019,03,20,04,27,3.80
2019,03,20,04,28,3.80
2019,03,20,04,29,3.70
2019,03,20,04,30,3.70
2019,03,20,04,31,3.70
2019,03,20,04,32,3.70
2019,03,20,04,33,3.70
2019,03,20,04,34,3.70
2019,03,20,04,35,3.70
2019,03,20,04,36,3.70
2019,03,20,04,37,3.70
2019,03,20,04,38,3.70
2019,03,20,04,39,3.70
2019,03,20,04,40,3.70
2019,03,20,04,41,3.70
2019,03,20,04,42,3.70
2019,03,20,04,43,3.60
2019,03,20,04,44,3.60
2019,03,20,04,45,3.60
2019,03,20,04,46,3.60
2019,03,20,04,47,3.60
2019,03,20,04,48,3.50
2019,03,20,04,49,3.50
2019,03,20,04,50,3.50
2019,03,20,04,51,3.50
2019,03,20,04,52,3.50
2019,03,20,04,53,3.50
2019,03,20,04,54,3.50
2019,03,20,04,55,3.60
2019,03,20,04,56,3.60
2019,03,20,04,57,3.60
2019,03,20,04,58,3.60
2019,03,20,04,59,3.70
2019,03,20,05,00,3.70
2019,03,20,05,01,3.70
2019,03,20,05,02,3.70
2019,03,20,05,03,3.70
2019,03,20,05,04,3.70
2019,03,20,05,05,3.80
2019,03,20,05,06,3.80
2019,03,20,05,07,3.80
2019,03,20,05,08,3.80
2019,03,20,05,09,3.80
2019,03,20,05,10,3.80
2019,03,20,05,11,3.80
2019,03,20,05,12,3.80
2019,03,20,05,13,3.80
2019,03,20,05,14,3.80
2019,03,20,05,15,3.80
2019,03,20,05,16,3.80
2019,03,20,05,17,3.80
2019,03,20,05,18,3.80
2019,03,20,05,19,3.80
2019,03,20,05,20,3.70
2019,03,20,05,21,3.70
2019,03,20,05,22,3.70
2019,03,20,05,23,3.70
2019,03,20,05,24,3.70
2019,03,20,05,25,3.60
2019,03,20,05,26,3.60
2019,03,20,05,27,3.60
2019,03,20,05,28,3.60
2019,03,20,05,29,3.60
2019,03,20,05,30,3.60
2019,03,20,05,31,3.60
2019,03,20,05,32,3.50
2019,03,20,05,33,3.50
2019,03,20,05,34,3.50
2019,03,20,05,35,3.50
2019,03,20,05,36,3.50
2019,03,20,05,37,3.50
2019,03,20,05,38,3.50
2019,03,20,05,39,3.50
2019,03,20,05,40,3.50
2019,03,20,05,41,3.50
2019,03,20,05,42,3.50
2019,03,20,05,43,3.50
2019,03,20,05,44,3.50
2019,03,20,05,45,3.50
2019,03,20,05,46,3.60
2019,03,20,05,47,3.60
2019,03,20,05,48,3.60
2019,03,20,05,49,3.60
2019,03,20,05,50,3.60
2019,03,20,05,51,3.60
2019,03,20,05,52,3.60
2019,03,20,05,53,3.60
2019,03,20,05,54,3.50
2019,03,20,05,55,3.50
2019,03,20,05,56,3.50
2019,03,20,05,57,3.50
2019,03,20,05,58,3.50
2019,03,20,05,59,3.40
2019,03,20,06,00,3.40
2019,03,20,06,01,3.40
2019,03,20,06,02,3.40
2019,03,20,06,03,3.40
2019,03,20,06,04,3.40
2019,03,20,06,05,3.50
2019,03,20,06,06,3.50
2019,03,20,06,07,3.50
2019,03,20,06,08,3.50
2019,03,20,06,09,3.50
2019,03,20,06,10,3.50
2019,03,20,06,11,3.50
2019,03,20,06,12,3.50
2019,03,20,06,13,3.50
2019,03,20,06,14,3.40
2019,03,20,06,15,3.40
2019,03,20,06,16,3.40
2019,03,20,06,17,3.40
2019,03,20,06,18,3.40
2019,03,20,06,19,3.40
2019,03,20,06,20,3.40
2019,03,20,06,21,3.40
2019,03,20,06,22,3.40
2019,03,20,06,23,3.40
2019,03,20,06,24,3.40
2019,03,20,06,25,3.30
2019,03,20,06,26,3.30
2019,03,20,06,27,3.30
2019,03,20,06,28,3.30
2019,03,20,06,29,3.20
2019,03,20,06,30,3.20
2019,03,20,06,31,3.20
2019,03,20,06,32,3.20
2019,03,20,06,33,3.20
2019,03,20,06,34,3.20
2019,03,20,06,35,3.20
2019,03,20,06,36,3.20
2019,03,20,06,37,3.10
2019,03,20,06,38,3.10
2019,03,20,06,39,3.10
2019,03,20,06,40,3.10
2019,03,20,06,41,3.10
2019,03,20,06,42,3.00
2019,03,20,06,43,3.00
2019,03,20,06,44,3.10
2019,03,20,06,45,3.10
2019,03,20,06,46,3.10
2019,03,20,06,47,3.10
2019,03,20,06,48,3.10
2019,03,20,06,49,3.10
2019,03,20,06,50,3.20
2019,03,20,06,51,3.20
2019,03,20,06,52,3.20
2019,03,20,06,53,3.20
2019,03,20,06,54,3.10
2019,03,20,06,55,3.10
2019,03,20,06,56,3.10
2019,03,20,06,57,3.10
2019,03,20,06,58,3.10
2019,03,20,06,59,3.10
2019,03,20,07,00,3.10
2019,03,20,07,01,3.10
2019,03,20,07,02,3.10
2019,03,20,07,03,3.10
2019,03,20,07,04,3.10
2019,03,20,07,05,3.00
2019,03,20,07,06,3.00
2019,03,20,07,07,3.00
2019,03,20,07,08,2.90
2019,03,20,07,09,2.90
2019,03,20,07,10,2.90
2019,03,20,07,11,2.90
2019,03,20,07,12,2.90
2019,03,20,07,13,2.90
2019,03,20,07,14,2.90
2019,03,20,07,15,2.90
2019,03,20,07,16,2.80
2019,03,20,07,17,2.80
2019,03,20,07,18,2.80
2019,03,20,07,19,2.80
2019,03,20,07,20,2.80
2019,03,20,07,21,2.80
2019,03,20,07,22,2.80
2019,03,20,07,23,2.80
2019,03,20,07,24,2.80
2019,03,20,07,25,2.80
2019,03,20,07,26,2.80
2019,03,20,07,27,2.80
2019,03,20,07,28,2.80
2019,03,20,07,29,2.80
2019,03,20,07,30,2.80
2019,03,20,07,31,2.90
2019,03,20,07,32,2.90
2019,03,20,07,33,2.90
2019,03,20,07,34,2.90
2019,03,20,07,35,2.90
2019,03,20,07,36,2.90
2019,03,20,07,37,2.90
2019,03,20,07,38,2.90
2019,03,20,07,39,2.90
2019,03,20,07,40,2.90
2019,03,20,07,41,2.90
2019,03,20,07,42,2.90
2019,03,20,07,43,2.90
2019,03,20,07,44,3.00
2019,03,20,07,45,3.00
2019,03,20,07,46,3.00
2019,03,20,07,47,3.10
2019,03,20,07,48,3.10
2019,03,20,07,49,3.20
2019,03,20,07,50,3.20
2019,03,20,07,51,3.20
2019,03,20,07,52,3.20
2019,03,20,07,53,3.30
2019,03,20,07,54,3.30
2019,03,20,07,55,3.30
2019,03,20,07,56,3.30
2019,03,20,07,57,3.40
2019,03,20,07,58,3.40
2019,03,20,07,59,3.50
2019,03,20,08,00,3.50
2019,03,20,08,01,3.60
2019,03,20,08,02,3.70
2019,03,20,08,03,3.80
2019,03,20,08,04,3.90
2019,03,20,08,05,4.00
2019,03,20,08,06,4.10
2019,03,20,08,07,4.20
2019,03,20,08,08,4.30
2019,03,20,08,09,4.40
2019,03,20,08,10,4.50
2019,03,20,08,11,4.50
2019,03,20,08,12,4.50
2019,03,20,08,13,4.60
2019,03,20,08,14,4.60
2019,03,20,08,15,4.60
2019,03,20,08,16,4.70
2019,03,20,08,17,4.80
2019,03,20,08,18,4.90
2019,03,20,08,19,5.00
2019,03,20,08,20,5.10
2019,03,20,08,21,5.20
2019,03,20,08,22,5.30
2019,03,20,08,23,5.40
2019,03,20,08,24,5.50
2019,03,20,08,25,5.60
2019,03,20,08,26,5.70
2019,03,20,08,27,5.70
2019,03,20,08,28,5.80
2019,03,20,08,29,5.80
2019,03,20,08,30,5.90
2019,03,20,08,31,6.00
2019,03,20,08,32,6.10
2019,03,20,08,33,6.20
2019,03,20,08,34,6.30
2019,03,20,08,35,6.40
2019,03,20,08,36,6.50
2019,03,20,08,37,6.60
2019,03,20,08,38,6.70
2019,03,20,08,39,6.80
2019,03,20,08,40,6.90
2019,03,20,08,41,7.00
2019,03,20,08,42,7.10
2019,03,20,08,43,7.10
2019,03,20,08,44,7.20
2019,03,20,08,45,7.20
2019,03,20,08,46,7.30
2019,03,20,08,47,7.40
2019,03,20,08,48,7.40
2019,03,20,08,49,7.50
2019,03,20,08,50,7.60
2019,03,20,08,51,7.70
2019,03,20,08,52,7.70
2019,03,20,08,53,7.80
2019,03,20,08,54,7.80
2019,03,20,08,55,7.90
2019,03,20,08,56,8.00
2019,03,20,08,57,8.10
2019,03,20,08,58,8.10
2019,03,20,08,59,8.20
2019,03,20,09,00,8.20
2019,03,20,09,01,8.30
2019,03,20,09,02,8.30
2019,03,20,09,03,8.30
2019,03,20,09,04,8.30
2019,03,20,09,05,8.40
2019,03,20,09,06,8.40
2019,03,20,09,07,8.50
2019,03,20,09,08,8.50
2019,03,20,09,09,8.60
2019,03,20,09,10,8.60
2019,03,20,09,11,8.70
2019,03,20,09,12,8.70
2019,03,20,09,13,8.80
2019,03,20,09,14,8.80
2019,03,20,09,15,8.90
2019,03,20,09,16,9.00
2019,03,20,09,17,9.10
2019,03,20,09,18,9.20
2019,03,20,09,19,9.20
2019,03,20,09,20,9.30
2019,03,20,09,21,9.40
2019,03,20,09,22,9.50
2019,03,20,09,23,9.50
2019,03,20,09,24,9.60
2019,03,20,09,25,9.70
2019,03,20,09,26,9.70
2019,03,20,09,27,9.80
2019,03,20,09,28,9.90
2019,03,20,09,29,9.90
2019,03,20,09,30,10.00
2019,03,20,09,31,10.10
2019,03,20,09,32,10.10
2019,03,20,09,33,10.20
2019,03,20,09,34,10.20
2019,03,20,09,35,10.20
2019,03,20,09,36,10.30
2019,03,20,09,37,10.30
2019,03,20,09,38,10.40
2019,03,20,09,39,10.40
2019,03,20,09,40,10.50
2019,03,20,09,41,10.50
2019,03,20,09,42,10.60
2019,03,20,09,43,10.60
2019,03,20,09,44,10.70
2019,03,20,09,45,10.70
2019,03,20,09,46,10.80
2019,03,20,09,47,10.90
2019,03,20,09,48,10.90
2019,03,20,09,49,11.00
2019,03,20,09,50,11.10
2019,03,20,09,51,11.20
2019,03,20,09,52,11.30
2019,03,20,09,53,11.30
2019,03,20,09,54,11.40
2019,03,20,09,55,11.50
2019,03,20,09,56,11.60
2019,03,20,09,57,11.70
2019,03,20,09,58,11.80
2019,03,20,09,59,11.80
2019,03,20,10,00,12.00
2019,03,20,10,01,12.00
2019,03,20,10,02,12.10
2019,03,20,10,03,12.20
2019,03,20,10,04,12.30
2019,03,20,10,05,12.30
2019,03,20,10,06,12.40
2019,03,20,10,07,12.50
2019,03,20,10,08,12.50
2019,03,20,10,09,12.60
2019,03,20,10,10,12.70
2019,03,20,10,11,12.70
2019,03,20,10,12,12.80
2019,03,20,10,13,12.80
2019,03,20,10,14,12.90
2019,03,20,10,15,12.90
2019,03,20,10,16,13.00
2019,03,20,10,17,13.10
2019,03,20,10,18,13.10
2019,03,20,10,19,13.20
2019,03,20,10,20,13.20
2019,03,20,10,21,13.20
2019,03,20,10,22,13.30
2019,03,20,10,23,13.30
2019,03,20,10,24,13.30
2019,03,20,10,25,13.40
2019,03,20,10,26,13.40
2019,03,20,10,27,13.40
2019,03,20,10,28,13.50
2019,03,20,10,29,13.50
2019,03,20,10,30,13.50
2019,03,20,10,31,13.60
2019,03,20,10,32,13.60
2019,03,20,10,33,13.70
2019,03,20,10,34,13.70
2019,03,20,10,35,13.80
2019,03,20,10,36,13.80
2019,03,20,10,37,13.80
2019,03,20,10,38,13.80
2019,03,20,10,39,13.80
2019,03,20,10,40,13.80
2019,03,20,10,41,13.80
2019,03,20,10,42,13.80
2019,03,20,10,43,13.80
2019,03,20,10,44,13.70
2019,03,20,10,45,13.70
2019,03,20,10,46,13.70
2019,03,20,10,47,13.60
2019,03,20,10,48,13.60
2019,03,20,10,49,13.60
2019,03,20,10,50,13.60
2019,03,20,10,51,13.50
2019,03,20,10,52,13.50
2019,03,20,10,53,13.50
2019,03,20,10,54,13.50
2019,03,20,10,55,13.50
2019,03,20,10,56,13.50
2019,03,20,10,57,13.40
2019,03,20,10,58,13.40
2019,03,20,10,59,13.40
2019,03,20,11,00,13.40
2019,03,20,11,01,13.40
2019,03,20,11,02,13.40
2019,03,20,11,03,13.40
2019,03,20,11,04,13.40
2019,03,20,11,05,13.40
2019,03,20,11,06,13.40
2019,03,20,11,07,13.40
2019,03,20,11,08,13.40
2019,03,20,11,09,13.30
2019,03,20,11,10,13.40
2019,03,20,11,11,13.40
2019,03,20,11,12,13.40
2019,03,20,11,13,13.50
2019,03,20,11,14,13.50
2019,03,20,11,15,13.60
2019,03,20,11,16,13.60
2019,03,20,11,17,13.70
2019,03,20,11,18,13.80
2019,03,20,11,19,13.90
2019,03,20,11,20,14.00
2019,03,20,11,21,14.00
2019,03,20,11,22,14.10
2019,03,20,11,23,14.20
2019,03,20,11,24,14.30
2019,03,20,11,25,14.30
2019,03,20,11,26,14.40
2019,03,20,11,27,14.50
2019,03,20,11,28,14.60
2019,03,20,11,29,14.70
2019,03,20,11,30,14.80
2019,03,20,11,31,14.90
2019,03,20,11,32,15.00
2019,03,20,11,33,15.10
2019,03,20,11,34,15.20
2019,03,20,11,35,15.30
2019,03,20,11,36,15.40
2019,03,20,11,37,15.40
2019,03,20,11,38,15.50
2019,03,20,11,39,15.60
2019,03,20,11,40,15.70
2019,03,20,11,41,15.70
2019,03,20,11,42,15.70
2019,03,20,11,43,15.80
2019,03,20,11,44,15.90
2019,03,20,11,45,15.90
2019,03,20,11,46,16.00
2019,03,20,11,47,16.00
2019,03,20,11,48,16.10
2019,03,20,11,49,16.10
2019,03,20,11,50,16.20
2019,03,20,11,51,16.20
2019,03,20,11,52,16.30
2019,03,20,11,53,16.30
2019,03,20,11,54,16.30
2019,03,20,11,55,16.40
2019,03,20,11,56,16.40
2019,03,20,11,57,16.30
2019,03,20,11,58,16.30
2019,03,20,11,59,16.30
2019,03,20,12,00,16.30
2019,03,20,12,01,16.30
2019,03,20,12,02,16.20
2019,03,20,12,03,16.20
2019,03,20,12,04,16.20
2019,03,20,12,05,16.20
2019,03,20,12,06,16.20
2019,03,20,12,07,16.20
2019,03,20,12,08,16.20
2019,03,20,12,09,16.20
2019,03,20,12,10,16.20
2019,03,20,12,11,16.20
2019,03,20,12,12,16.30
2019,03,20,12,13,16.30
2019,03,20,12,14,16.40
2019,03,20,12,15,16.40
2019,03,20,12,16,16.40
2019,03,20,12,17,16.50
2019,03,20,12,18,16.50
2019,03,20,12,19,16.60
2019,03,20,12,20,16.60
2019,03,20,12,21,16.60
2019,03,20,12,22,16.70
2019,03,20,12,23,16.70
2019,03,20,12,24,16.80
2019,03,20,12,25,16.80
2019,03,20,12,26,16.80
2019,03,20,12,27,16.90
2019,03,20,12,28,16.90
2019,03,20,12,29,16.90
2019,03,20,12,30,17.00
2019,03,20,12,31,17.10
2019,03,20,12,32,17.20
2019,03,20,12,33,17.20
2019,03,20,12,34,17.20
2019,03,20,12,35,17.20
2019,03,20,12,36,17.30
2019,03,20,12,37,17.30
2019,03,20,12,38,17.40
2019,03,20,12,39,17.50
2019,03,20,12,40,17.50
2019,03,20,12,41,17.60
2019,03,20,12,42,17.60
2019,03,20,12,43,17.50
2019,03,20,12,44,17.50
2019,03,20,12,45,17.40
2019,03,20,12,46,17.40
2019,03,20,12,47,17.40
2019,03,20,12,48,17.40
2019,03,20,12,49,17.40
2019,03,20,12,50,17.50
2019,03,20,12,51,17.50
2019,03,20,12,52,17.60
2019,03,20,12,53,17.60
2019,03,20,12,54,17.70
2019,03,20,12,55,17.70
2019,03,20,12,56,17.80
2019,03,20,12,57,17.80
2019,03,20,12,58,17.90
2019,03,20,12,59,17.90
2019,03,20,13,00,17.90
2019,03,20,13,01,17.90
2019,03,20,13,02,17.90
2019,03,20,13,03,17.90
2019,03,20,13,04,18.00
2019,03,20,13,05,18.00
2019,03,20,13,06,18.10
2019,03,20,13,07,18.10
2019,03,20,13,08,18.20
2019,03,20,13,09,18.20
2019,03,20,13,10,18.20
2019,03,20,13,11,18.20
2019,03,20,13,12,18.30
2019,03,20,13,13,18.30
2019,03,20,13,14,18.30
2019,03,20,13,15,18.30
2019,03,20,13,16,18.40
2019,03,20,13,17,18.40
2019,03,20,13,18,18.50
2019,03,20,13,19,18.50
2019,03,20,13,20,18.60
2019,03,20,13,21,18.60
2019,03,20,13,22,18.70
2019,03,20,13,23,18.70
2019,03,20,13,24,18.80
2019,03,20,13,25,18.80
2019,03,20,13,26,18.90
2019,03,20,13,27,18.90
2019,03,20,13,28,18.90
2019,03,20,13,29,18.90
2019,03,20,13,30,18.90
2019,03,20,13,31,19.00
2019,03,20,13,32,18.90
2019,03,20,13,33,18.90
2019,03,20,13,34,18.90
2019,03,20,13,35,18.80
2019,03,20,13,36,18.80
2019,03,20,13,37,18.80
2019,03,20,13,38,18.80
2019,03,20,13,39,18.70
2019,03,20,13,40,18.70
2019,03,20,13,41,18.70
2019,03,20,13,42,18.70
2019,03,20,13,43,18.70
2019,03,20,13,44,18.70
2019,03,20,13,45,18.70
2019,03,20,13,46,18.70
2019,03,20,13,47,18.70
2019,03,20,13,48,18.70
2019,03,20,13,49,18.80
2019,03,20,13,50,18.80
2019,03,20,13,51,18.80
2019,03,20,13,52,18.80
2019,03,20,13,53,18.80
2019,03,20,13,54,18.80
2019,03,20,13,55,18.90
2019,03,20,13,56,18.90
2019,03,20,13,57,18.90
2019,03,20,13,58,18.90
2019,03,20,13,59,18.90
2019,03,20,14,00,19.00
2019,03,20,14,01,19.00
2019,03,20,14,02,19.10
2019,03,20,14,03,19.10
2019,03,20,14,04,19.10
2019,03,20,14,05,19.10
2019,03,20,14,06,19.20
2019,03,20,14,07,19.20
2019,03,20,14,08,19.20
2019,03,20,14,09,19.20
2019,03,20,14,10,19.20
2019,03,20,14,11,19.20
2019,03,20,14,12,19.20
2019,03,20,14,13,19.20
2019,03,20,14,14,19.20
2019,03,20,14,15,19.20
2019,03,20,14,16,19.30
2019,03,20,14,17,19.30
2019,03,20,14,18,19.30
2019,03,20,14,19,19.30
2019,03,20,14,20,19.40
2019,03,20,14,21,19.40
2019,03,20,14,22,19.50
2019,03,20,14,23,19.50
2019,03,20,14,24,19.60
2019,03,20,14,25,19.70
2019,03,20,14,26,19.70
2019,03,20,14,27,19.70
2019,03,20,14,28,19.80
2019,03,20,14,29,19.80
2019,03,20,14,30,19.80
2019,03,20,14,31,19.80
2019,03,20,14,32,19.80
2019,03,20,14,33,19.80
2019,03,20,14,34,19.80
2019,03,20,14,35,19.90
2019,03,20,14,36,19.90
2019,03,20,14,37,19.90
2019,03,20,14,38,19.90
2019,03,20,14,39,19.80
2019,03,20,14,40,19.80
2019,03,20,14,41,19.90
2019,03,20,14,42,19.90
2019,03,20,14,43,20.00
2019,03,20,14,44,20.10
2019,03,20,14,45,20.10
2019,03,20,14,46,20.10
2019,03,20,14,47,20.10
2019,03,20,14,48,20.00
2019,03,20,14,49,20.10
2019,03,20,14,50,20.10
2019,03,20,14,51,20.10
2019,03,20,14,52,20.10
2019,03,20,14,53,20.20
2019,03,20,14,54,20.20
2019,03,20,14,55,20.20
2019,03,20,14,56,20.20
2019,03,20,14,57,20.20
2019,03,20,14,58,20.20
2019,03,20,14,59,20.20
2019,03,20,15,00,20.20
2019,03,20,15,01,20.20
2019,03,20,15,02,20.20
2019,03,20,15,03,20.30
2019,03,20,15,04,20.30
2019,03,20,15,05,20.30
2019,03,20,15,06,20.30
2019,03,20,15,07,20.20
2019,03,20,15,08,20.20
2019,03,20,15,09,20.10
2019,03,20,15,10,20.10
2019,03,20,15,11,20.10
2019,03,20,15,12,20.00
2019,03,20,15,13,20.00
2019,03,20,15,14,19.90
2019,03,20,15,15,19.90
2019,03,20,15,16,19.90
2019,03,20,15,17,19.90
2019,03,20,15,18,20.00
2019,03,20,15,19,20.00
2019,03,20,15,20,20.10
2019,03,20,15,21,20.10
2019,03,20,15,22,20.10
2019,03,20,15,23,20.10
2019,03,20,15,24,20.10
2019,03,20,15,25,20.20
2019,03,20,15,26,20.20
2019,03,20,15,27,20.30
2019,03,20,15,28,20.30
2019,03,20,15,29,20.30
2019,03,20,15,30,20.30
2019,03,20,15,31,20.30
2019,03,20,15,32,20.30
2019,03,20,15,33,20.40
2019,03,20,15,34,20.40
2019,03,20,15,35,20.50
2019,03,20,15,36,20.50
2019,03,20,15,37,20.60
2019,03,20,15,38,20.60
2019,03,20,15,39,20.60
2019,03,20,15,40,20.70
2019,03,20,15,41,20.70
2019,03,20,15,42,20.70
2019,03,20,15,43,20.70
2019,03,20,15,44,20.70
2019,03,20,15,45,20.60
2019,03,20,15,46,20.60
2019,03,20,15,47,20.60
2019,03,20,15,48,20.60
2019,03,20,15,49,20.50
2019,03,20,15,50,20.50
2019,03,20,15,51,20.50
2019,03,20,15,52,20.50
2019,03,20,15,53,20.50
2019,03,20,15,54,20.50
2019,03,20,15,55,20.60
2019,03,20,15,56,20.60
2019,03,20,15,57,20.60
2019,03,20,15,58,20.60
2019,03,20,15,59,20.70
2019,03,20,16,00,20.70
2019,03,20,16,01,20.70
2019,03,20,16,02,20.70
2019,03,20,16,03,20.70
2019,03,20,16,04,20.70
2019,03,20,16,05,20.80
2019,03,20,16,06,20.80
2019,03,20,16,07,20.80
2019,03,20,16,08,20.90
2019,03,20,16,09,20.90
2019,03,20,16,10,20.90
2019,03,20,16,11,21.00
2019,03,20,16,12,21.00
2019,03,20,16,13,21.00
2019,03,20,16,14,21.00
2019,03,20,16,15,21.00
2019,03,20,16,16,21.00
2019,03,20,16,17,20.90
2019,03,20,16,18,20.80
2019,03,20,16,19,20.80
2019,03,20,16,20,20.70
2019,03,20,16,21,20.70
2019,03,20,16,22,20.70
2019,03,20,16,23,20.70
2019,03,20,16,24,20.70
2019,03,20,16,25,20.60
2019,03,20,16,26,20.70
2019,03,20,16,27,20.70
2019,03,20,16,28,20.70
2019,03,20,16,29,20.70
2019,03,20,16,30,20.70
2019,03,20,16,31,20.70
2019,03,20,16,32,20.70
2019,03,20,16,33,20.80
2019,03,20,16,34,20.80
2019,03,20,16,35,20.80
2019,03,20,16,36,20.90
2019,03,20,16,37,20.90
2019,03,20,16,38,20.90
2019,03,20,16,39,20.90
2019,03,20,16,40,20.90
2019,03,20,16,41,20.90
2019,03,20,16,42,20.90
2019,03,20,16,43,20.90
2019,03,20,16,44,20.90
2019,03,20,16,45,20.90
2019,03,20,16,46,20.90
2019,03,20,16,47,20.90
2019,03,20,16,48,20.90
2019,03,20,16,49,20.90
2019,03,20,16,50,20.90
2019,03,20,16,51,20.90
2019,03,20,16,52,21.00
2019,03,20,16,53,21.00
2019,03,20,16,54,21.00
2019,03,20,16,55,21.00
2019,03,20,16,56,21.10
2019,03,20,16,57,21.10
2019,03,20,16,58,21.10
2019,03,20,16,59,21.20
2019,03,20,17,00,21.20
2019,03,20,17,01,21.20
2019,03,20,17,02,21.20
2019,03,20,17,03,21.20
2019,03,20,17,04,21.20
2019,03,20,17,05,21.20
2019,03,20,17,06,21.20
2019,03,20,17,07,21.20
2019,03,20,17,08,21.10
2019,03,20,17,09,21.10
2019,03,20,17,10,21.10
2019,03,20,17,11,21.10
2019,03,20,17,12,21.10
2019,03,20,17,13,21.10
2019,03,20,17,14,21.00
2019,03,20,17,15,21.00
2019,03,20,17,16,20.90
2019,03,20,17,17,20.80
2019,03,20,17,18,20.80
2019,03,20,17,19,20.80
2019,03,20,17,20,20.80
2019,03,20,17,21,20.70
2019,03,20,17,22,20.70
2019,03,20,17,23,20.70
2019,03,20,17,24,20.70
2019,03,20,17,25,20.60
2019,03,20,17,26,20.60
2019,03,20,17,27,20.60
2019,03,20,17,28,20.60
2019,03,20,17,29,20.60
2019,03,20,17,30,20.60
2019,03,20,17,31,20.60
2019,03,20,17,32,20.70
2019,03,20,17,33,20.70
2019,03,20,17,34,20.70
2019,03,20,17,35,20.60
2019,03,20,17,36,20.60
2019,03,20,17,37,20.60
2019,03,20,17,38,20.50
2019,03,20,17,39,20.40
2019,03,20,17,40,20.40
2019,03,20,17,41,20.40
2019,03,20,17,42,20.30
2019,03,20,17,43,20.30
2019,03,20,17,44,20.30